Meteor 1-18 Rocket - Orbit

View from above orbital plane
View from above orbital plane
View from above satellite
View from above satellite

Ground track
Ground track

The orbit data is extracted from the following two-line orbital elements,

1 07364U 74052B   13143.13551552 -.00000010  00000-0 -13526-4 0  9205
2 07364 081.2305 146.4647 0049359 001.4220 065.3122 14.05760409992579
Epoch (UTC): 23 May 2013 03:15:08
Eccentricity: 0.0049359
inclination: 81.2305°
perigee height: 838 km
apogee height: 910 km
right ascension of ascending node: 146.4647°
argument of perigee: 1.4220°
revolutions per day: 14.05760409
mean anomaly at epoch: 65.3122°
orbit number at epoch: 99257

The dashed part of the orbit path shows where the satellite is in the earth's shadow,  

Developed and maintained by Chris Peat, Heavens-Above GmbH. Please read the updated FAQ before sending e-mail. Imprint. DLR